Hourly Weather Barlewiczki

Today, 30 September, Wednesday

Time Temperature Precipitation Wind Pressure Humidity
00:00 +14°C° 0 mm 2 mps 757 mmHg 82%
01:00 +14°C° 0 mm 2 mps 757 mmHg 78%
02:00 +14°C° 0 mm 2 mps 757 mmHg 80%
03:00 +13°C° 0 mm 2 mps 757 mmHg 82%
04:00 +13°C° 0 mm 2 mps 756 mmHg 84%
05:00 +13°C° 0 mm 2 mps 757 mmHg 83%
06:00 +12°C° 0 mm 3 mps 757 mmHg 82%
07:00 +12°C° 0 mm 3 mps 757 mmHg 79%
08:00 +13°C° 0 mm 3 mps 757 mmHg 73%
09:00 +14°C° 0 mm 4 mps 757 mmHg 67%
10:00 +17°C° 0 mm 4 mps 757 mmHg 61%
11:00 +16°C° 0 mm 5 mps 756 mmHg 58%
12:00 +17°C° 0 mm 5 mps 756 mmHg 56%
13:00 +17°C° 0 mm 5 mps 756 mmHg 54%
14:00 +16°C° 0 mm 5 mps 756 mmHg 58%
15:00 +16°C° 0 mm 5 mps 756 mmHg 62%
16:00 +15°C° 0 mm 5 mps 755 mmHg 66%
17:00 +14°C° 0 mm 5 mps 755 mmHg 71%
18:00 +14°C° 0 mm 4 mps 755 mmHg 76%
19:00 +13°C° 0 mm 4 mps 755 mmHg 80%
20:00 +13°C° 0 mm 3 mps 755 mmHg 82%
21:00 +13°C° 0 mm 3 mps 755 mmHg 84%
22:00 +13°C° 0 mm 3 mps 754 mmHg 86%
23:00 +13°C° 0 mm 3 mps 754 mmHg 87%

Tomorrow, 1 October, Thursday

Time Temperature Precipitation Wind Pressure Humidity
00:00 +13°C° 0 mm 3 mps 754 mmHg 88%
01:00 +13°C° 0 mm 3 mps 754 mmHg 89%
02:00 +12°C° 0 mm 3 mps 753 mmHg 90%
03:00 +12°C° 0 mm 3 mps 753 mmHg 90%
04:00 +12°C° 0 mm 3 mps 752 mmHg 90%
05:00 +11°C° 0 mm 3 mps 752 mmHg 89%
06:00 +11°C° 0 mm 3 mps 752 mmHg 87%
07:00 +11°C° 0 mm 3 mps 752 mmHg 86%
08:00 +12°C° 0 mm 3 mps 752 mmHg 78%
09:00 +14°C° 0 mm 4 mps 751 mmHg 69%
10:00 +15°C° 0 mm 4 mps 751 mmHg 61%
11:00 +17°C° 0 mm 4 mps 751 mmHg 60%
12:00 +18°C° 0 mm 4 mps 751 mmHg 58%
13:00 +18°C° 0 mm 4 mps 750 mmHg 56%
14:00 +18°C° 0 mm 4 mps 750 mmHg 58%
15:00 +18°C° 0 mm 4 mps 750 mmHg 59%
16:00 +17°C° 0 mm 4 mps 750 mmHg 60%
17:00 +16°C° 0 mm 3 mps 750 mmHg 63%
18:00 +16°C° 0 mm 2 mps 750 mmHg 65%
19:00 +15°C° 0 mm 2 mps 750 mmHg 67%
20:00 +14°C° 0 mm 2 mps 751 mmHg 73%
21:00 +12°C° 0 mm 3 mps 751 mmHg 78%
22:00 +12°C° 0 mm 3 mps 751 mmHg 83%
23:00 +11°C° 0 mm 3 mps 751 mmHg 87%

Day after tomorrow, 2 October, Friday

Time Temperature Precipitation Wind Pressure Humidity
00:00 +11°C° 0 mm 3 mps 751 mmHg 90%
01:00 +11°C° 0 mm 3 mps 751 mmHg 94%
02:00 +10°C° 0 mm 3 mps 751 mmHg 93%
03:00 +10°C° 0 mm 3 mps 751 mmHg 93%
04:00 +10°C° 0 mm 3 mps 751 mmHg 92%
05:00 +11°C° 0 mm 3 mps 751 mmHg 91%
06:00 +11°C° 0 mm 3 mps 751 mmHg 90%
07:00 +11°C° 0 mm 4 mps 751 mmHg 89%
08:00 +12°C° 0 mm 4 mps 752 mmHg 85%
09:00 +13°C° 0 mm 4 mps 752 mmHg 81%
10:00 +15°C° 0 mm 4 mps 752 mmHg 76%
11:00 +17°C° 0 mm 4 mps 752 mmHg 72%
12:00 +18°C° 0 mm 4 mps 752 mmHg 68%
13:00 +18°C° 0 mm 4 mps 752 mmHg 64%
14:00 +18°C° 0 mm 4 mps 752 mmHg 66%
15:00 +18°C° 0 mm 4 mps 752 mmHg 67%
16:00 +18°C° 0 mm 4 mps 752 mmHg 69%
17:00 +17°C° 0 mm 4 mps 752 mmHg 73%
18:00 +15°C° 0 mm 4 mps 752 mmHg 77%
19:00 +14°C° 0 mm 4 mps 752 mmHg 81%
20:00 +13°C° 0 mm 4 mps 752 mmHg 84%
21:00 +12°C° 0 mm 4 mps 753 mmHg 87%
22:00 +12°C° 0 mm 4 mps 753 mmHg 90%
23:00 +12°C° 0 mm 4 mps 752 mmHg 91%

3 October, Saturday

Time Temperature Precipitation Wind Pressure Humidity
00:00 +11°C° 0 mm 4 mps 752 mmHg 92%
01:00 +11°C° 0 mm 4 mps 752 mmHg 93%
02:00 +11°C° 0 mm 4 mps 752 mmHg 94%
03:00 +10°C° 0 mm 5 mps 752 mmHg 94%
04:00 +10°C° 0 mm 5 mps 752 mmHg 94%
05:00 +10°C° 0 mm 5 mps 751 mmHg 92%
06:00 +10°C° 0 mm 6 mps 751 mmHg 90%
07:00 +11°C° 0 mm 6 mps 751 mmHg 89%
08:00 +13°C° 0 mm 6 mps 751 mmHg 82%
09:00 +15°C° 0 mm 7 mps 750 mmHg 75%
10:00 +16°C° 0 mm 7 mps 750 mmHg 68%
11:00 +17°C° 0 mm 7 mps 750 mmHg 65%
12:00 +18°C° 0 mm 8 mps 749 mmHg 63%
13:00 +20°C° 0 mm 8 mps 749 mmHg 61%
14:00 +20°C° 0 mm 7 mps 749 mmHg 63%
15:00 +20°C° 0 mm 7 mps 748 mmHg 64%
16:00 +20°C° 0 mm 7 mps 748 mmHg 66%
17:00 +18°C° 0 mm 7 mps 748 mmHg 69%
18:00 +17°C° 0 mm 6 mps 748 mmHg 72%
19:00 +17°C° 0 mm 6 mps 748 mmHg 76%
20:00 +16°C° 0 mm 7 mps 748 mmHg 77%
21:00 +16°C° 0 mm 7 mps 748 mmHg 77%
22:00 +16°C° 0 mm 7 mps 747 mmHg 78%
23:00 +16°C° 0 mm 7 mps 747 mmHg 79%

4 October, Sunday

Time Temperature Precipitation Wind Pressure Humidity
00:00 +16°C° 0 mm 7 mps 747 mmHg 79%
01:00 +16°C° 0 mm 7 mps 746 mmHg 79%
02:00 +16°C° 0 mm 7 mps 746 mmHg 79%
03:00 +16°C° 0 mm 7 mps 745 mmHg 79%
04:00 +16°C° 0 mm 7 mps 745 mmHg 79%
05:00 +16°C° 0 mm 7 mps 745 mmHg 77%
06:00 +17°C° 0 mm 8 mps 744 mmHg 76%
07:00 +17°C° 0 mm 8 mps 744 mmHg 74%
08:00 +18°C° 0 mm 8 mps 744 mmHg 73%
09:00 +18°C° 0 mm 8 mps 745 mmHg 72%
10:00 +18°C° 0 mm 8 mps 745 mmHg 71%
11:00 +20°C° 0 mm 7 mps 745 mmHg 68%
12:00 +21°C° 0 mm 6 mps 746 mmHg 65%
13:00 +22°C° 0 mm 5 mps 747 mmHg 61%
14:00 +21°C° 0 mm 4 mps 747 mmHg 63%
15:00 +20°C° 0 mm 4 mps 748 mmHg 64%
16:00 +20°C° 0 mm 4 mps 748 mmHg 65%
17:00 +18°C° 0 mm 3 mps 748 mmHg 71%
18:00 +16°C° 0 mm 2 mps 749 mmHg 77%
19:00 +14°C° 0 mm 2 mps 749 mmHg 83%
20:00 +14°C° 0 mm 2 mps 749 mmHg 85%
21:00 +13°C° 0 mm 2 mps 750 mmHg 87%
22:00 +13°C° 0 mm 1 mps 750 mmHg 89%
23:00 +13°C° 0 mm 2 mps 750 mmHg 90%

5 October, Monday

Time Temperature Precipitation Wind Pressure Humidity
00:00 +13°C° 0 mm 2 mps 750 mmHg 91%
01:00 +13°C° 0 mm 2 mps 750 mmHg 92%
02:00 +13°C° 0 mm 2 mps 750 mmHg 92%
03:00 +13°C° 0 mm 2 mps 749 mmHg 93%
04:00 +13°C° 0 mm 2 mps 749 mmHg 93%
05:00 +13°C° 0 mm 2 mps 749 mmHg 93%
06:00 +13°C° 0 mm 2 mps 749 mmHg 94%
07:00 +13°C° 0 mm 2 mps 749 mmHg 94%
08:00 +14°C° 0 mm 3 mps 748 mmHg 86%
09:00 +16°C° 0 mm 3 mps 748 mmHg 78%
10:00 +18°C° 0 mm 3 mps 748 mmHg 70%
11:00 +19°C° 0 mm 3 mps 747 mmHg 68%
12:00 +19°C° 0 mm 3 mps 747 mmHg 67%
13:00 +19°C° 0 mm 3 mps 746 mmHg 65%
14:00 +19°C° 0.1 mm 3 mps 746 mmHg 69%
15:00 +18°C° 0.1 mm 2 mps 745 mmHg 73%
16:00 +18°C° 0.1 mm 1 mps 745 mmHg 77%
17:00 +16°C° 0 mm 1 mps 745 mmHg 82%
18:00 +15°C° 0 mm 1 mps 744 mmHg 86%
19:00 +14°C° 0 mm 1 mps 744 mmHg 90%
20:00 +14°C° 0 mm 2 mps 744 mmHg 90%
21:00 +13°C° 0 mm 3 mps 744 mmHg 89%
22:00 +13°C° 0 mm 3 mps 744 mmHg 89%
23:00 +13°C° 0.9 mm 3 mps 744 mmHg 90%
Show more